Overview Statistics Trail Chart Weather Telemetry Raw packets
 

This is the latest recevied weather packets stored in our database for station/object WA4ORT. If no packets are shown the sender has not sent any weather packets the latest 10 day(s).

<< 14 15 16 17 18 19 20 >>
Time Temp. Humidity Pressure Rain* Wind** Luminosity Snow
1788286969 32.22° C - - 0 mm 1.34 m/s, 333° - -
1788286074 32.22° C - - 0 mm 0.45 m/s, 352° - -
1788285180 31.67° C - - 0 mm 0.89 m/s, 23° - -
1788284282 32.22° C - - 0 mm 2.24 m/s, 118° - -
1788283388 31.11° C - - 0 mm 0.89 m/s, 72° - -
1788282494 31.67° C - - 0 mm 1.34 m/s, 20° - -
1788281596 31.67° C - - 0 mm 1.79 m/s, 28° - -
1788280701 31.11° C - - 0 mm 1.34 m/s, 46° - -
1788279807 30.56° C - - 0 mm 3.13 m/s, 321° - -
1788278909 30° C - - 0 mm 1.34 m/s, 332° - -
1788278015 29.44° C - - 0 mm 0.45 m/s, 340° - -
1788277120 29.44° C - - 0 mm 0 m/s - -
1788276223 29.44° C - - 0 mm 0.45 m/s, 312° - -
1788275328 28.89° C - - 0 mm 2.24 m/s, 6° - -
1788273536 27.78° C - - 0 mm 2.24 m/s, 304° - -
1788272642 27.78° C - - 0 mm 1.79 m/s, 329° - -
1788271747 27.22° C - - 0 mm 0.45 m/s, 342° - -
1788270848 27.22° C - - 0 mm 1.34 m/s, 8° - -
1788269954 26.67° C - - 0 mm 0.89 m/s, 291° - -
1788269061 25.56° C - - 0 mm 0.89 m/s, 357° - -
1788268507 24.44° C - - 0 mm 1.34 m/s, 316° - -
1788268470 24.44° C - - 0 mm 1.34 m/s, 316° - -
1788268424 24.44° C - - 0 mm 1.34 m/s, 316° - -
1788268217 24.44° C - - 0 mm 1.34 m/s, 316° - -
1788268162 24.44° C - - 0 mm 1.34 m/s, 316° - -

* Rain latest hour (hover to see other rain measurements)
** Current wind speed in m/s (hover to see current wind gust speed)